2023/09/24 00:00:00,24.7,14.0
2023/09/24 00:10:00,24.7,14.1
2023/09/24 00:20:00,24.7,13.9
2023/09/24 00:30:00,24.7,14.0
2023/09/24 00:40:00,24.7,13.9
2023/09/24 00:50:00,24.7,13.8
2023/09/24 01:00:00,24.7,14.1
2023/09/24 01:10:00,24.7,14.1
2023/09/24 01:20:00,24.7,13.9
2023/09/24 01:30:00,24.7,14.0
2023/09/24 01:40:00,24.7,13.9
2023/09/24 01:50:00,24.7,13.8
2023/09/24 02:00:00,24.7,13.5
2023/09/24 02:10:00,24.7,13.9
2023/09/24 02:20:00,24.7,13.6
2023/09/24 02:30:00,24.7,13.7
2023/09/24 02:40:00,24.7,13.7
2023/09/24 02:50:00,24.5,13.5
2023/09/24 03:00:00,24.5,13.6
2023/09/24 03:10:00,24.5,13.5
2023/09/24 03:20:00,24.4,13.7
2023/09/24 03:30:00,24.4,13.3
2023/09/24 03:40:00,24.4,13.2
2023/09/24 03:50:00,24.4,13.5
2023/09/24 04:00:00,24.4,13.3
2023/09/24 04:10:00,24.4,13.3
2023/09/24 04:20:00,24.4,13.2
2023/09/24 04:30:00,24.4,12.8
2023/09/24 04:40:00,24.4,13.1
2023/09/24 04:50:00,24.3,13.1
2023/09/24 05:00:00,24.3,12.9
2023/09/24 05:10:00,24.3,13.0
2023/09/24 05:20:00,24.3,12.6
2023/09/24 05:30:00,24.2,12.9
2023/09/24 05:40:00,24.3,12.8
2023/09/24 05:50:00,24.3,12.6
2023/09/24 06:00:00,24.3,12.8
2023/09/24 06:10:00,24.3,12.5
2023/09/24 06:20:00,24.3,12.8
2023/09/24 06:30:00,24.2,12.6
2023/09/24 06:40:00,24.1,13.0
2023/09/24 06:50:00,24.2,13.0
2023/09/24 07:00:00,24.3,13.2
2023/09/24 07:10:00,24.2,13.5
2023/09/24 07:20:00,24.2,13.4
2023/09/24 07:30:00,24.2,13.5
2023/09/24 07:40:00,24.3,13.9
2023/09/24 07:50:00,24.3,14.2
2023/09/24 08:00:00,24.4,14.5
2023/09/24 08:10:00,24.5,15.1
2023/09/24 08:20:00,24.5,15.6
2023/09/24 08:30:00,24.5,16.0
2023/09/24 08:40:00,24.6,16.5
2023/09/24 08:50:00,24.5,16.9
2023/09/24 09:00:00,24.5,18.4
2023/09/24 09:10:00,24.7,18.2
2023/09/24 09:20:00,25.0,18.9
2023/09/24 09:30:00,26.4,20.0
2023/09/24 09:40:00,25.2,19.9
2023/09/24 09:50:00,25.0,21.1
2023/09/24 10:00:00,25.0,21.0
2023/09/24 10:10:00,28.3,21.2
2023/09/24 10:20:00,24.7,20.8
2023/09/24 10:30:00,33.4,24.0
2023/09/24 10:40:00,29.2,24.5
2023/09/24 10:50:00,31.1,23.9
2023/09/24 11:00:00,26.3,23.0
2023/09/24 11:10:00,27.3,23.3
2023/09/24 11:20:00,26.6,23.6
2023/09/24 11:30:00,25.9,23.0
2023/09/24 11:40:00,31.9,22.9
2023/09/24 11:50:00,24.8,23.1
2023/09/24 12:00:00,24.6,23.6
2023/09/24 12:10:00,16.0,24.2
2023/09/24 12:20:00, 0.2,24.1
2023/09/24 12:30:00, 2.9,24.3
2023/09/24 12:40:00, 2.5,24.0
2023/09/24 12:50:00,15.9,23.8
2023/09/24 13:00:00,18.4,25.7
2023/09/24 13:10:00,19.8,24.5
2023/09/24 13:20:00,21.7,23.9
2023/09/24 13:30:00,22.5,24.3
2023/09/24 13:40:00,18.7,23.9
2023/09/24 13:50:00,21.9,23.5
2023/09/24 14:00:00,16.1,23.2
2023/09/24 14:10:00, 5.0,23.2
2023/09/24 14:20:00, 9.8,23.1
2023/09/24 14:30:00,17.2,23.3
2023/09/24 14:40:00,13.5,23.8
2023/09/24 14:50:00, 0.6,23.8
2023/09/24 15:00:00, 0.2,23.7
2023/09/24 15:10:00, 0.2,23.8
2023/09/24 15:20:00,11.9,22.9
2023/09/24 15:30:00, 7.3,23.0
2023/09/24 15:40:00,---,23.3
2023/09/24 15:50:00,20.4,23.0
2023/09/24 16:00:00,22.8,22.9
2023/09/24 16:10:00,23.6,22.6
2023/09/24 16:20:00,24.1,21.9
2023/09/24 16:30:00,24.6,20.9
2023/09/24 16:40:00,24.7,20.4
2023/09/24 16:50:00,24.7,20.1
2023/09/24 17:00:00,24.8,19.2
2023/09/24 17:10:00,24.7,19.1
2023/09/24 17:20:00,24.7,18.8
2023/09/24 17:30:00,24.7,18.8
2023/09/24 17:40:00,24.7,18.1
2023/09/24 17:50:00,24.7,17.6
2023/09/24 18:00:00,24.7,17.5
2023/09/24 18:10:00,24.7,17.1
2023/09/24 18:20:00,24.7,17.0
2023/09/24 18:30:00,24.6,16.8
2023/09/24 18:40:00,24.7,16.7
2023/09/24 18:50:00,24.7,16.4
2023/09/24 19:00:00,24.6,16.1
2023/09/24 19:10:00,24.7,16.0
2023/09/24 19:20:00,24.6,16.1
2023/09/24 19:30:00,24.4,16.1
2023/09/24 19:40:00,24.4,16.1
2023/09/24 19:50:00,24.6,15.9
2023/09/24 20:00:00,24.5,15.8
2023/09/24 20:10:00,24.5,15.8
2023/09/24 20:20:00,24.6,15.7
2023/09/24 20:30:00,24.7,15.7
2023/09/24 20:40:00,24.6,15.6
2023/09/24 20:50:00,24.7,15.3
2023/09/24 21:00:00,24.7,15.4
2023/09/24 21:10:00,24.6,15.2
2023/09/24 21:20:00,24.6,15.0
2023/09/24 21:30:00,24.6,15.0
2023/09/24 21:40:00,24.6,15.1
2023/09/24 21:50:00,24.6,15.2
2023/09/24 22:00:00,24.7,15.1
2023/09/24 22:10:00,24.6,14.8
2023/09/24 22:20:00,24.6,14.4
2023/09/24 22:30:00,24.7,14.9
2023/09/24 22:40:00,24.7,14.8
2023/09/24 22:50:00,24.6,14.6
2023/09/24 23:00:00,24.7,14.8
2023/09/24 23:10:00,24.7,14.8
2023/09/24 23:20:00,24.7,14.8
2023/09/24 23:30:00,24.7,15.2
2023/09/24 23:40:00,24.4,15.2
2023/09/24 23:50:00,24.7,15.2
